Location: Salillas
(41.9950°N, 0.2228°W)
Time: 18:50:51
(UTC+00:00)

Cosmos 304 Rocket - Pass Details

Date: 29 March 2020
Orbit: 679 x 687 km, 74.0° (Epoch: 30 May)

Event Time Altitude Azimuth Distance (km) Brightness Sun altitude
Rises 19:46:18 0° 336° (NNW) 3,047 7.8 -15.8°
Reaches altitude 10° 19:48:38 10° 332° (NNW) 2,127 7.0 -16.2°
Maximum altitude 19:53:19 56° 255° (WSW) 806 4.4 -17.0°
Drops below altitude 10° 19:57:58 10° 177° (S) 2,112 6.0 -17.8°
Enters shadow 19:58:26 - 176° (S) 2,296 6.2 -17.9°
